珠海一号 OHS-01星 (ZHUHAI-1 OHS-01)

导读

ZHUHAI-1 OHS-01(珠海一号OHS-01)是中国于2018年4月26日发射的高光谱遥感卫星,隶属于珠海一号商业高光谱卫星星座,由欧比特宇航科技自主研制运营。卫星运行于500公里高度太阳同步轨道,采用三轴稳定控制,具备10米空间分辨率与10纳米光谱分辨率,可提供270个波段的高光谱数据,广泛服务于环境监测、农业估产、资源勘探等领域,设计寿命5年,目前已超期稳定服役,为我国商业遥感应用提供重要支撑。

基本信息
目录编号:
43439
目录名称:
ZHUHAI-1 OHS-01
国际标识:
2018-040A
轨道中心:
EARTH
卫星名称:
珠海一号 OHS-01星
卫星全名:
珠海一号 OHS-01星 (ZHUHAI-1 OHS-01)
卫星状态:
已陨落 最后检测时间 2024-11-14
发射日期:
2018-04-26 UTC
国别 :
中国 (CN)
星等 :
--
轨道信息
数据来源 国际轨道数据
星历时间: 2024-11-11T05:53:27+0800
轨道信息已过期578天
半长轴: 6525.477km
偏心率: 0.0009607
轨道倾角: 97.075°
近地点辐角 251.776°
升交点赤经 4.362°
平近点角 108.249°
近地点: 141.072km
远地点: 153.612km
周期: 87.434分钟
每日圈数: 16.469651
详细信息
平衡模式:
三轴稳定
覆盖范围:
全球
运营商:
珠海欧比特宇航科技股份有限公司
运营商所在国:
中国
制造商(研发单位):
珠海欧比特宇航科技股份有限公司
制造商所在国:
中国
使用方式:
暂无
卫星简介
珠海一号(Zhuhai-1)卫星星座是由珠海欧比特宇航科技股份有限公司发射并运营的商业遥感微纳卫星星座,整个星座由34颗遥感卫星组成,分别是2颗视频试验卫星、10颗视频卫星、10颗高光谱卫星、2颗高分光学卫星、2颗SAR卫星和8颗红外卫星。该卫星仍在工作。